Date String (YYYY-MM-DD hh:mm:ss) UTC,Instrument flags,Ambient pressure (hPa),Sample flow (lpm),Bypass flow (lpm),Sample temperature (°C),Ambient temperature (°C),ASC tube jacket temperature (°C),LED temperature (°C),Box temperature (°C),Sample RH (%),Span deviation,Mass concentration (μg/m³),Mass concentration (μg/m³),Mass concentration (μg/m³)
DateTimeUTC,F1_M11,P_M11,Q1_M11,Q2_M11,T1_M11,T2_M11,T3_M11,T4_M11,T5_M11,U1_M11,ZSPAN_M11,X2_M11,X0_M11,X1_M11
2022-06-03 20:00:00,,0822.5,5.01,0.00,29.5,28.7,00.0,38.2,31.5,24.2,-000.9,0007.91,0016.26,0006.95
2022-06-03 20:01:00,,0822.4,4.99,0.00,29.5,28.7,00.0,38.3,31.5,24.3,-000.7,0007.73,0015.58,0006.75
2022-06-03 20:02:00,,0822.4,4.99,0.00,29.5,28.8,00.0,38.3,31.5,24.1,-001.1,0007.41,0015.05,0006.51
2022-06-03 20:03:00,,0822.5,5.00,0.00,29.6,28.4,00.0,38.3,31.4,25.5,-001.2,0007.23,0014.67,0006.33
2022-06-03 20:04:00,,0822.5,5.00,0.00,29.5,27.7,00.0,38.2,31.3,26.3,-001.9,0007.11,0013.47,0006.25
2022-06-03 20:05:00,,0822.4,5.00,0.00,29.5,27.5,00.0,38.2,31.2,26.1,-001.9,0007.03,0013.66,0006.19
2022-06-03 20:06:00,,0822.4,5.00,0.00,29.4,27.5,00.0,38.2,31.1,26.0,-001.9,0006.92,0013.72,0006.11
2022-06-03 20:07:00,,0822.5,4.99,0.00,29.4,27.6,00.0,38.2,31.2,25.5,-002.0,0006.85,0013.65,0006.04
2022-06-03 20:08:00,,0822.4,5.00,0.00,29.4,27.7,00.0,38.2,31.2,26.0,-001.9,0006.81,0013.42,0006.03
2022-06-03 20:09:00,,0822.5,4.99,0.00,29.4,27.9,00.0,38.2,31.2,25.2,-001.5,0006.77,0012.90,0006.01
2022-06-03 20:10:00,,0822.5,5.02,0.00,29.4,28.0,00.0,38.2,31.3,25.8,-001.6,0006.73,0012.47,0005.98
2022-06-03 20:11:00,,0822.4,5.00,0.00,29.4,28.2,00.0,38.2,31.3,26.3,-001.6,0006.64,0012.10,0005.96
2022-06-03 20:12:00,,0822.4,4.99,0.00,29.4,28.3,00.0,38.2,31.4,25.8,-002.0,0006.56,0012.68,0005.94
2022-06-03 20:13:00,,0822.4,4.99,0.00,29.5,28.4,00.0,38.3,31.4,25.6,-001.8,0006.57,0013.02,0005.93
2022-06-03 20:14:00,,0822.3,5.00,0.00,29.5,28.5,00.0,38.3,31.5,25.2,-001.9,0006.55,0013.03,0005.89
2022-06-03 20:15:00,,0822.3,5.00,0.00,29.5,28.6,00.0,38.3,31.5,25.0,-001.6,0006.54,0013.29,0005.82
2022-06-03 20:16:00,,0822.1,5.01,0.00,29.6,28.7,00.0,38.3,31.5,25.9,-001.7,0006.50,0013.07,0005.73
2022-06-03 20:17:00,,0822.0,4.99,0.00,29.6,28.7,00.0,38.3,31.6,25.3,-002.0,0006.46,0012.84,0005.68
2022-06-03 20:18:00,,0822.0,5.00,0.00,29.6,28.4,00.0,38.3,31.5,25.5,-001.9,0006.45,0012.89,0005.65
2022-06-03 20:19:00,,0822.0,5.01,0.00,29.5,27.5,00.0,38.2,31.2,26.9,-001.7,0006.39,0012.87,0005.60
2022-06-03 20:20:00,,0821.8,4.99,0.00,29.4,27.0,00.0,38.2,31.0,25.1,-001.7,0006.38,0012.77,0005.58
2022-06-03 20:21:00,,0821.8,5.00,0.00,29.3,27.0,00.0,38.2,31.0,25.8,-001.6,0006.41,0012.36,0005.57
2022-06-03 20:22:00,,0822.0,5.00,0.00,29.3,27.0,00.0,38.2,31.0,25.4,-001.5,0006.43,0012.29,0005.55
2022-06-03 20:23:00,,0822.1,5.00,0.00,29.2,27.2,00.0,38.1,31.0,25.1,-001.0,0006.47,0011.76,0005.55
2022-06-03 20:24:00,,0822.1,4.99,0.00,29.2,27.4,00.0,38.1,31.1,25.0,-001.1,0006.46,0011.89,0005.53
2022-06-03 20:25:00,,0822.3,5.00,0.00,29.2,27.6,00.0,38.1,31.1,24.9,-000.8,0006.40,0011.87,0005.50
2022-06-03 20:26:00,,0822.4,5.00,0.00,29.2,27.7,00.0,38.1,31.1,24.9,-001.0,0006.29,0011.54,0005.44
2022-06-03 20:27:00,,0822.4,4.99,0.00,29.3,27.9,00.0,38.1,31.2,24.9,-000.9,0006.24,0011.48,0005.40
2022-06-03 20:28:00,,0822.4,5.00,0.00,29.3,28.0,00.0,38.1,31.2,24.9,-000.9,0006.24,0011.50,0005.39
2022-06-03 20:29:00,,0822.5,5.00,0.00,29.3,28.1,00.0,38.1,31.3,25.0,-000.9,0006.16,0011.40,0005.34
2022-06-03 20:30:00,,0822.4,5.01,0.00,29.3,28.3,00.0,38.2,31.3,25.2,-000.8,0006.15,0011.75,0005.30
2022-06-03 20:31:00,,0822.4,5.01,0.00,29.4,28.4,00.0,38.2,31.3,26.4,-001.1,0006.18,0011.77,0005.32
2022-06-03 20:32:00,,0822.5,4.99,0.00,29.4,28.5,00.0,38.2,31.4,27.7,-001.7,0006.37,0011.88,0005.52
2022-06-03 20:33:00,,0822.5,5.00,0.00,29.4,28.5,00.0,38.2,31.4,27.8,-001.7,0006.70,0012.29,0005.85
2022-06-03 20:34:00,,0822.4,5.01,0.00,29.5,28.6,00.0,38.2,31.4,27.8,-001.7,0007.10,0013.18,0006.19
2022-06-03 20:35:00,,0822.5,5.00,0.00,29.5,28.7,00.0,38.3,31.5,27.4,-001.4,0007.41,0013.10,0006.52
2022-06-03 20:36:00,,0822.5,5.00,0.00,29.5,28.7,00.0,38.3,31.5,27.9,-001.4,0007.75,0013.49,0006.83
2022-06-03 20:37:00,,0822.6,5.00,0.00,29.5,28.4,00.0,38.3,31.4,28.4,-001.6,0008.17,0015.07,0007.21
2022-06-03 20:38:00,,0822.6,4.99,0.00,29.5,27.7,00.0,38.2,31.3,28.6,-001.6,0008.65,0016.32,0007.68
2022-06-03 20:39:00,,0822.7,5.01,0.00,29.4,27.4,00.0,38.2,31.1,28.6,-001.7,0009.15,0017.62,0008.16
2022-06-03 20:40:00,,0822.7,5.00,0.00,29.3,27.4,00.0,38.2,31.1,29.1,-001.8,0009.64,0019.58,0008.64
2022-06-03 20:41:00,,0822.7,5.00,0.00,29.3,27.4,00.0,38.2,31.1,28.8,-001.9,0010.13,0020.12,0009.08
2022-06-03 20:42:00,,0822.6,5.00,0.00,29.3,27.6,00.0,38.2,31.1,28.9,-001.7,0010.57,0020.66,0009.48
2022-06-03 20:43:00,,0822.5,5.00,0.00,29.3,27.7,00.0,38.2,31.1,28.6,-001.7,0010.73,0021.22,0009.67
2022-06-03 20:44:00,,0822.4,4.99,0.00,29.3,27.8,00.0,38.2,31.2,28.7,-001.8,0010.75,0022.26,0009.72
2022-06-03 20:45:00,,0822.3,5.00,0.00,29.3,27.9,00.0,38.2,31.2,28.7,-001.9,0010.76,0022.71,0009.74
2022-06-03 20:46:00,,0822.2,5.00,0.00,29.3,28.0,00.0,38.2,31.2,28.3,-002.0,0010.82,0022.99,0009.77
2022-06-03 20:47:00,,0822.1,5.00,0.00,29.3,28.1,00.0,38.2,31.2,27.7,-002.1,0010.84,0023.24,0009.82
2022-06-03 20:48:00,,0822.1,4.99,0.00,29.3,28.2,00.0,38.2,31.3,27.4,-001.8,0010.77,0022.08,0009.79
2022-06-03 20:49:00,,0822.0,4.99,0.00,29.4,28.3,00.0,38.2,31.3,27.8,-001.7,0010.66,0021.02,0009.70
2022-06-03 20:50:00,,0822.0,4.99,0.00,29.4,28.4,00.0,38.2,31.3,27.8,-001.6,0010.49,0020.45,0009.57
2022-06-03 20:51:00,,0822.0,5.00,0.00,29.4,28.5,00.0,38.2,31.4,27.7,-001.5,0010.39,0019.29,0009.46
2022-06-03 20:52:00,,0822.1,4.99,0.00,29.4,28.5,00.0,38.2,31.4,27.6,-001.2,0010.27,0018.69,0009.32
2022-06-03 20:53:00,,0822.0,5.00,0.00,29.5,28.6,00.0,38.3,31.4,28.3,-001.4,0010.02,0019.24,0009.15
2022-06-03 20:54:00,,0822.0,5.00,0.00,29.5,28.6,00.0,38.3,31.5,28.0,-001.4,0009.87,0019.06,0008.97
2022-06-03 20:55:00,,0822.0,5.00,0.00,29.5,28.7,00.0,38.3,31.5,26.8,-001.2,0009.69,0018.34,0008.78
2022-06-03 20:56:00,,0821.9,5.01,0.00,29.5,28.1,00.0,38.2,31.4,26.3,-001.0,0009.47,0017.19,0008.60
2022-06-03 20:57:00,,0821.9,4.99,0.00,29.5,27.5,00.0,38.2,31.2,26.4,-000.9,0009.22,0016.90,0008.38
2022-06-03 20:58:00,,0821.9,5.01,0.00,29.4,27.3,00.0,38.2,31.1,25.6,-001.0,0008.95,0016.62,0008.11
2022-06-03 20:59:00,,0821.9,5.00,0.00,29.3,27.4,00.0,38.2,31.1,27.2,-001.2,0008.78,0017.90,0007.91
